User: anonymous   Login
Location: Byszew
(52.1813°N, 19.2693°E)
Time: 11:32:44
(UTC+00:00)
Language:

CUTE 1.7 + AOD 2 - Orbit

View from above orbital plane
View from above orbital plane
View from above satellite
View from above satellite

Ground track
Ground track

The orbit data is extracted from the following two-line orbital elements,

1 32785U 08021C   22180.85735279  .00000882  00000-0  97823-4 0  9996
2 32785  97.6578 151.3131 0012292 185.4240 174.6847 14.89626836768409
Epoch (UTC): 29 June 2022 20:34:35
Eccentricity: 0.0012292
inclination: 97.6578°
perigee height: 590 km
apogee height: 607 km
right ascension of ascending node: 151.3131°
argument of perigee: 185.4240°
revolutions per day: 14.89626836
mean anomaly at epoch: 174.6847°
orbit number at epoch: 76840

The dashed part of the orbit path shows where the satellite is in the earth's shadow,  

DLR